www.pogodaiklimat.ru

Погода и климат >> Архив погоды >> Австралия >> Западная Австралия >> Норсман


ПОГОДА в Норсмане

  • Прогноз погоды в Норсмане
  • Монитор погоды в Норсмане

АРХИВ ПОГОДЫ в Норсмане

Время (UTC), дата Ветер
(напр.,м/с)
 
Видим.   Явления Облачность Т
(С)
Тd
(С)
f
(%)
Тe
(С)
Тes
(С)
Комфортность P
(гПа)
Po
(гПа)
Тmin
(С)
Tmax
(С)
R
(мм)
R24
(мм)
S
(см)
13 9.07 ЮЗ 3 н/о н/о +9.2 +4.8 74 +7 +7 1022.6 991.0 +17.9
15 9.07 З 1 н/о н/о +8.4 +5.2 80 +9 +9 1022.5 990.9
16 9.07 ЮЗ 2 н/о н/о +8.5 +5.6 82 +7 +7 1022.2 990.6
18 9.07 З 3 н/о н/о +7.5 +5.1 85 +5 +5 1022.0 990.4
19 9.07 З 2 н/о н/о +6.8 +5.3 90 +4 +4 1021.8 990.2
21 9.07 штиль 0 н/о н/о +4.2 +3.6 96 +3 +3 1021.9 990.3
22 9.07 штиль 0 н/о н/о +2.1 +2.0 99 +1 +1 1022.4 990.8
00 10.07 штиль 0 н/о н/о +3.5 +3.4 99 +2 +2 1024.8 993.1
01 10.07 ЮЗ 3 н/о н/о +8.4 +8.3 99 +6 +6 1025.4 993.7 +1.2
03 10.07 ЮЗ 8 н/о н/о +13.3 +7.7 69 +11 +11 1024.8 993.1
04 10.07 ЮЗ 6 н/о н/о +14.5 +7.3 62 +13 +13 1024.1 992.4
06 10.07 З 4 н/о н/о +16.8 +6.0 49 +16 +16 1022.8 991.2
07 10.07 З 5 н/о н/о +17.4 +6.0 47 +17 +17 1023.4 991.7
09 10.07 ЮЗ 4 н/о н/о +14.7 +6.5 58 +14 +14 1024.0 992.3
10 10.07 ЮЗ 1 н/о н/о +10.3 +4.9 69 +10 +10 1024.8 993.1
12 10.07 ЮЗ 2 н/о н/о +6.2 +3.7 84 +4 +4 1025.4 993.7
13 10.07 ЮЗ 2 н/о н/о +5.1 +3.4 89 +3 +3 1025.7 994.0 +17.8
15 10.07 Ю 1 н/о н/о +3.7 +2.8 94 +3 +3 1026.1 994.4
16 10.07 штиль 0 н/о н/о +3.3 +2.7 96 +2 +2 1025.9 994.2
18 10.07 Ю 3 н/о н/о +2.8 +2.7 99 -1 -1 1026.0 994.3
19 10.07 штиль 0 н/о н/о +2.2 +2.1 99 +1 +1 1025.9 994.2
21 10.07 ЮВ 2 н/о н/о +1.6 +1.5 99 -2 -2 1026.5 994.7
22 10.07 штиль 0 н/о н/о +1.0 +0.9 99 -0 -0 1027.2 995.4
00 11.07 Ю 2 н/о н/о +5.2 +5.2 100 +2 +2 1028.1 996.3
01 11.07 З 1 н/о н/о +8.5 +6.8 89 +8 +8 1028.5 996.7 -0.2
03 11.07 З 5 н/о н/о +15.0 +7.5 61 +14 +14 1028.0 996.2
04 11.07 ЮЗ 5 н/о н/о +16.2 +7.4 56 +15 +15 1027.0 995.2
06 11.07 ЮЗ 5 н/о н/о +17.8 +5.4 44 +17 +17 1025.7 994.0
07 11.07 ЮЗ 4 н/о н/о +18.1 +5.7 44 +18 +18 1025.7 994.0
09 11.07 ЮЗ 5 н/о н/о +14.1 +7.9 66 +12 +12 1026.9 995.1
10 11.07 ЮЗ 3 н/о н/о +10.8 +6.6 75 +9 +9 1027.7 995.9
12 11.07 Ю 3 н/о н/о +8.1 +5.6 84 +6 +6 1028.5 996.7
13 11.07 Ю 2 н/о н/о +7.3 +5.9 91 +5 +5 1028.7 996.9 +18.8
15 11.07 Ю 1 н/о н/о +3.7 +3.6 99 +3 +3 1028.9 997.1
16 11.07 ЮЗ 3 н/о н/о +5.7 +5.6 99 +2 +2 1028.5 996.7
18 11.07 Ю 2 н/о н/о +3.5 +3.4 99 0 0 1028.5 996.7
19 11.07 Ю 3 н/о н/о +5.6 +5.6 100 +2 +2 1028.4 996.6
21 11.07 Ю 2 н/о н/о +1.8 +1.7 99 -2 -2 1029.0 997.2
22 11.07 штиль 0 н/о н/о +0.6 +0.5 99 -1 -1 1029.3 997.5
00 12.07 штиль 0 н/о н/о +5.9 +5.9 100 +5 +5 1030.4 998.5
01 12.07 ЮЗ 2 н/о н/о +9.3 +8.1 92 +7 +7 1031.2 999.3 +0.5
03 12.07 Ю 4 н/о н/о +14.1 +10.1 77 +13 +13 1031.3 999.4
04 12.07 Ю 5 н/о н/о +14.6 +9.8 73 +13 +13 1030.6 998.7
06 12.07 Ю 4 н/о н/о +15.0 +8.3 64 +14 +14 1030.1 998.2
07 12.07 ЮЗ 6 н/о н/о +15.2 +7.0 58 +14 +14 1030.3 998.4
09 12.07 Ю 3 н/о н/о +13.6 +7.2 65 +13 +13 1031.2 999.3
10 12.07 Ю 2 н/о н/о +11.6 +5.9 68 +11 +11 1031.9 1000.0
12 12.07 Ю 2 н/о н/о +8.1 +5.6 84 +7 +7 1032.8 1000.9
13 12.07 ЮЗ 3 н/о н/о +5.6 +3.9 89 +3 +3 1033.4 1001.4 +15.6
15 12.07 ЮЗ 1 н/о н/о +3.7 +2.5 92 +2 +2 1033.6 1001.6
16 12.07 штиль 0 н/о н/о +3.2 +2.6 96 +2 +2 1033.4 1001.4
18 12.07 Ю 3 н/о н/о +1.5 +1.4 99 -3 -3 1033.9 1001.9
19 12.07 ЮЗ 1 н/о н/о -0.2 -0.3 99 -1 -1 1034.0 1002.0
21 12.07 ЮЗ 1 н/о н/о -0.2 -0.3 99 -1 -1 1034.4 1002.4
22 12.07 штиль 0 н/о н/о +0.5 +0.4 99 -1 -1 1035.0 1003.0
00 13.07 штиль 0 н/о н/о +3.9 +3.8 99 +3 +3 1036.6 1004.5
01 13.07 штиль 0 н/о н/о +7.1 +5.7 91 +6 +6 1037.4 1005.3 -1.1
03 13.07 С 3 н/о н/о +13.2 +5.6 60 +12 +12 1037.2 1005.1
04 13.07 С 3 н/о н/о +13.5 +5.2 57 +12 +12 1035.9 1003.9
06 13.07 С 3 н/о н/о +15.0 +5.0 51 +15 +15 1034.3 1002.3
07 13.07 СЗ 2 н/о н/о +15.3 +4.7 49 +15 +15 1034.2 1002.2
09 13.07 ЮВ 4 н/о н/о +14.2 +4.2 51 +13 +13 1034.4 1002.4
10 13.07 ЮВ 3 н/о н/о +11.6 +5.3 65 +10 +10 1034.9 1002.9
12 13.07 ЮВ 2 н/о н/о +6.7 +3.9 82 +4 +4 1035.7 1003.7
13 13.07 В 3 н/о н/о +9.0 +4.6 74 +7 +7 1035.8 1003.8 +16.4
15 13.07 ЮЗ 2 н/о н/о +3.9 +2.1 88 +2 +2 1035.8 1003.8
18 13.07 штиль 0 н/о н/о +5.2 +3.5 89 +4 +4 1035.9 1003.9
19 13.07 штиль 0 н/о н/о +2.0 +0.7 91 +1 +1 1036.2 1004.1
21 13.07 В 2 н/о н/о +0.8 +0.7 99 -3 -3 1036.0 1004.0
22 13.07 штиль 0 н/о н/о -1.2 -1.3 99 -3 -3 1036.7 1004.6
00 14.07 штиль 0 н/о н/о +1.3 +1.2 99 -0 -0 1037.9 1005.8
01 14.07 штиль 0 н/о н/о +6.3 +4.1 86 +5 +5 1038.3 1006.2 -1.6
03 14.07 СВ 4 н/о н/о +10.7 +5.7 71 +8 +8 1037.7 1005.6
04 14.07 СВ 4 н/о н/о +12.3 +5.7 64 +11 +11 1036.6 1004.5
06 14.07 В 4 н/о н/о +14.5 +4.2 50 +13 +13 1034.3 1002.3
07 14.07 СВ 4 н/о н/о +15.5 +4.8 49 +15 +15 1033.9 1001.9
09 14.07 В 3 н/о н/о +13.8 +4.7 54 +13 +13 1034.1 1002.1
10 14.07 В 3 н/о н/о +10.1 +4.0 66 +8 +8 1034.5 1002.5
12 14.07 В 3 н/о н/о +6.4 +3.0 79 +4 +4 1035.0 1003.0
13 14.07 В 3 н/о н/о +6.2 +3.0 80 +3 +3 1035.0 1003.0 +16.0
15 14.07 В 2 н/о н/о +2.7 +0.9 88 0 0 1035.0 1003.0
16 14.07 В 4 н/о н/о +6.3 +3.8 84 +3 +3 1035.1 1003.1
18 14.07 СВ 5 н/о н/о +6.3 +5.3 93 +2 +2 1034.8 1002.8
19 14.07 СВ 7 н/о н/о +7.1 +6.0 93 +2 +2 1034.5 1002.5
21 14.07 СВ 3 н/о н/о +5.3 +5.2 99 +2 +2 1034.8 1002.8
22 14.07 СВ 5 н/о н/о +6.0 +5.9 99 +2 +2 1035.0 1003.0
00 15.07 СВ 4 н/о н/о +6.2 +6.2 100 +2 +2 1035.8 1003.8
01 15.07 СВ 3 н/о н/о +7.6 +7.6 100 +4 +4 1036.0 1004.0 +1.3
03 15.07 С 6 н/о н/о +12.3 +7.4 72 +10 +10 1034.9 1002.9
04 15.07 С 6 н/о н/о +13.3 +7.5 68 +11 +11 1033.5 1001.5
06 15.07 СЗ 3 н/о н/о +15.3 +6.3 55 +15 +15 1031.8 999.9
07 15.07 СЗ 3 н/о н/о +16.5 +6.3 51 +16 +16 1031.4 999.5
09 15.07 С 2 н/о н/о +15.3 +6.3 55 +15 +15 1031.0 999.1
10 15.07 В 2 н/о н/о +10.0 +5.0 71 +9 +9 1031.2 999.3
12 15.07 ЮВ 1 н/о н/о +5.9 +2.7 80 +6 +6 1032.1 1000.2
13 15.07 В 3 н/о н/о +10.5 +4.6 67 +9 +9 1032.4 1000.5 +17.1
15 15.07 С 2 н/о н/о +7.9 +3.9 76 +6 +6 1032.3 1000.4
16 15.07 штиль 0 н/о н/о +5.7 +3.2 84 +5 +5 1032.0 1000.1
18 15.07 С 3 н/о н/о +4.9 +3.1 88 +2 +2 1031.4 999.5
19 15.07 С 2 н/о н/о +4.7 +3.5 92 +2 +2 1031.3 999.4
21 15.07 СВ 3 н/о н/о +1.8 +1.7 99 -3 -3 1031.1 999.2
22 15.07 СВ 3 н/о н/о +3.2 +3.1 99 -1 -1 1031.3 999.4
00 16.07 СВ 3 н/о н/о +5.3 +4.3 93 +2 +2 1032.0 1000.1
01 16.07 С 3 н/о н/о +7.9 +5.0 82 +5 +5 1032.3 1000.4 +1.4
03 16.07 С 4 н/о н/о +13.2 +6.1 62 +12 +12 1031.6 999.7
04 16.07 С 4 н/о н/о +15.4 +5.0 50 +15 +15 1030.4 998.5
06 16.07 С 4 н/о н/о +18.1 +3.2 37 +18 +18 1027.9 996.1
07 16.07 С 4 н/о н/о +18.9 +3.5 36 +19 +19 1027.8 996.0
09 16.07 СВ 3 н/о н/о +16.1 +3.2 42 +16 +16 1027.9 996.1
10 16.07 СВ 2 н/о н/о +11.2 +2.2 54 +10 +10 1028.1 996.3
12 16.07 штиль 0 н/о н/о +6.2 +0.9 69 +6 +6 1028.4 996.6
13 16.07 штиль 0 н/о н/о +4.8 +0.4 73 +4 +4 1028.5 996.7 +19.3

 

Местоположение метеостанции Норсман (Западная Австралия, Австралия): широта -32.22 долгота 121.75 высота над уровнем моря 263 м.

В архиве по умолчанию представлена погода в Норсмане за последнюю неделю. Архивные данные за месяц целиком и за предыдущие месяцы, начиная с января 2011 года, Вы можете получить, выбрав интересующий диапазон дат из раскрывающегося списка и нажав кнопку "Ввод!".


*Определитесь, кто Вы:
робот инопланетянин человек

Внимание! Время в таблицах - всемирное. Для получения местного времени необходимо прибавить поправку, которая равна 8 ч.

Смотрите также архив погоды в соседних городах и на ближайших метеорологических станциях:

Погода в Салмон Гамс (Западная Австралия, Австралия) (85 км)
Погода в Эсперансе (Западная Австралия, Австралия) (163 км)
Погода в Калгурли-Боулдере (Западная Австралия, Австралия) (163 км)
Погода в Мунглинап Запад (Западная Австралия, Австралия) (177 км)
Погода в Эсперансе (Западная Австралия, Австралия) (179 км)
Погода в Хоптауне (Западная Австралия, Австралия) (243 км)
Погода в Саутерн Кросс (Западная Австралия, Австралия) (252 км)
Погода в Ньюдегейте (Западная Австралия, Австралия) (291 км)
Погода в Джакапе (Западная Австралия, Австралия) (308 км)
Погода на Озере Грейс (Западная Австралия, Австралия) (323 км)

Пояснения к столбцам:

Ветер - указаны скорость ветра в м/с - средняя за 10 мин, порывы в срок и между сроками (в фигурных скобках) и направление, откуда дует ветер: С - северный, СВ - северо-восточный, В - восточный, ЮВ - юго-восточный, Ю - южный, ЮЗ - юго-западный, З - западный, СЗ - северо-западный.
Видимость - горизонтальная дальность видимости в метрах или километрах. При видимости от 1 до 10 км при отсутствии осадков обычно наблюдается дымка, при ухудшении видимости до 1 км и менее - туман. В сухую погоду видимость может ухудшаться дымом, пылью или мглою.
Явления - указаны атмосферные явления, наблюдавшиеся в срок или в последний час перед сроком; фигурными скобками обозначены явления, наблюдавшиеся между сроками (за 1-3 часа до срока); квадратными скобками обозначены град или гололедные отложения с указанием их диаметра в мм.
Облачность - указаны через наклонную черту общая и нижняя облачность в баллах и высота нижней границы облаков в метрах; квадратными скобками обозначены формы облаков: Ci - перистые, Cs - перисто-слоистые, Cc - перисто-кучевые, Ac - высококучевые, As - высокослоистые, Sc - слоисто-кучевые, Ns - слоисто-дождевые, Cu - кучевые, Cb - кучево-дождевые. Подробнее классификацию облаков см. в Атласе облаков (PDF).
T - Температура воздуха - температура, измеренная на высоте 2 м над землей.
Td - Температура точки росы - температура, при понижении до которой содержащийся в воздухе водяной пар достигнет насыщения.
f - Относительная влажность воздуха - влажноcть воздуха, измеренная на высоте 2 м над землей.
Te - Эффективная температура - температура, которую ощущает одетый по сезону человек в тени. Характеристика душности погоды. При расчете учитывается влияние влажности воздуха и скорости ветра на теплоощущения человека.
Tes - Эффективная температура на солнце - температура, которую ощущает человек, с поправкой на солнечный нагрев. Характеристика знойности погоды. Зависит от высоты солнца над горизонтом, облачности и скорости ветра. Ночью, в пасмурную погоду, а также при ветре 12 м/с и более поправка равна нулю.
P - Атмосферное давление - приведенное к уровню моря атмосферное давление.
Po - Атмосферное давление - измеренное на уровне метеостанции атмосферное давление.
Tmin - Минимальная температура - минимум температуры воздуха на высоте 2 м над землей.
Tmax - Максимальная температура - максимум температуры воздуха на высоте 2 м над землей.
R - Количество осадков - Количество выпавших осадков за период времени, мм. При наведении курсора мыши на число - период времени, за который выпало указанное количество осадков.
R24 - Количество осадков - Количество выпавших осадков за 24 часа, мм.
S - Снежный покров - Высота снежного покрова, см. При наведении курсора мыши на число - состояние снежного покрова и степень покрытия местности в баллах.